[[{"header":{"parameterUnit":"m.s-1","parameterCategory":1,"la1":30.2991,"la2":30.254,"lo1":-89.0895,"lo2":-89.0444,"dy":0.0017,"dx":0.0017,"nx":28,"ny":28,"refTime":"2024-03-19T03:00:00:Z","depth":0,"parameterNumber":2,"parameterNumberName":"U-component_of_WINDS"},"data":[0,0,0,0,0,0,0,0,0,0,0,0,0,0,0,0,0,0,0,0,0,0,0,0,0,0,0,0,0,0,0,0,0,0,0,0,0,0,0,0,0,0,0,0,0,0,0,0,0,0,0,0,0,0,0,0,0,0,1.0706,1.0707,0,1.0738,1.0738,1.0739,1.0774,1.0775,1.0775,1.0776,1.0807,1.0808,1.0808,0,0,0,0,0,0,0,0,0,0,0,0,0,1.0675,1.0676,1.0706,1.0707,1.0707,1.0738,1.0738,1.0739,1.0774,1.0775,1.0775,1.0776,1.0807,1.0808,1.0808,0,0,0,0,0,0,0,0,0,0,0,0,0,1.0696,1.0676,1.0706,1.0728,1.0731,1.0738,1.0738,1.0739,1.0774,1.0775,1.0776,1.0776,1.0807,1.0808,1.0808,1.0796,0,0,1.081,1.081,0,0,0,0,0,0,0,0,1.0695,1.0697,1.0725,1.0727,1.0729,1.0753,1.0739,1.0758,1.0774,1.0758,1.0776,1.0777,1.0789,1.0791,1.0795,1.0797,1.0798,1.081,1.081,1.081,1.081,0,0,0,0,0,0,0,1.0693,1.0696,1.0719,1.0725,1.0728,1.0737,1.074,1.0743,1.0768,1.0759,1.0762,1.0765,1.079,1.0794,1.0796,1.0799,1.081,1.081,1.081,1.0811,1.0793,1.0792,0,0,0,0,0,0,1.0689,1.0694,1.0718,1.072,1.0714,1.0736,1.0741,1.0745,1.0768,1.0773,1.0764,1.0767,1.0793,1.0795,1.0797,1.0784,1.081,1.0811,1.0811,1.0793,1.0792,1.0792,0,0,0,0,0,0,1.0688,1.069,1.0716,1.0708,1.0712,1.0736,1.074,1.0745,1.0749,1.0772,1.0777,1.0764,1.0794,1.0796,1.0796,1.0785,1.0811,1.0811,1.0794,1.0793,1.0792,1.0757,0,0,0,0,0,0,1.0687,1.069,1.0685,1.0707,1.0712,1.0715,1.074,1.0745,1.075,1.0753,1.0773,1.0777,1.0794,1.0795,1.0796,1.0786,1.0812,1.0795,1.0794,1.0792,1.0759,1.0755,1.0751,0,0,0,0,0,1.0685,1.0674,1.0685,1.0688,1.0707,1.0714,1.0717,1.0737,1.0749,1.0745,1.076,1.0777,1.0787,1.0794,1.0796,1.0787,1.0796,1.0794,1.0792,1.0761,1.0756,1.0751,0,0,0,0,0,0,1.0649,1.0677,1.069,1.0685,1.0697,1.072,1.0715,1.0731,1.0739,1.0741,1.0766,1.077,1.0767,1.0777,1.0785,1.0776,1.0794,1.0792,1.0769,1.0764,1.076,1.0757,1.0812,0,0,0,0,0,1.0641,1.0644,1.0669,1.0662,1.0668,1.069,1.0694,1.0709,1.0722,1.0727,1.0742,1.0754,1.0759,1.0763,1.0769,1.0761,1.0766,1.0756,1.0751,1.0748,1.0746,1.0742,1.0738,1.0786,1.0786,1.0786,0,0,1.0623,1.0639,1.0639,1.0655,1.0666,1.0669,1.0694,1.0696,1.0698,1.0727,1.0727,1.0739,1.0754,1.0749,1.0748,1.0758,1.0734,1.0746,1.0743,1.0743,1.074,1.0735,1.0731,1.0784,1.0785,1.0785,0,0,1.0592,1.0605,1.0601,1.0611,1.0628,1.0643,1.0642,1.0663,1.0672,1.0673,1.0695,1.0698,1.0707,1.0717,1.0723,1.0697,1.0713,1.0699,1.0676,1.0673,1.0669,1.0666,1.0655,1.0652,1.0697,1.0697,1.0697,0,1.0568,1.0573,1.0596,1.0597,1.0603,1.0631,1.0626,1.0636,1.0653,1.0657,1.0667,1.068,1.0692,1.069,1.0684,1.0688,1.0687,1.0696,1.0668,1.0665,1.0662,1.0652,1.0649,1.0695,1.0695,1.0695,1.0695,0,1.0542,1.0546,1.054,1.0557,1.0563,1.0561,1.0584,1.0587,1.0602,1.0616,1.0616,1.0632,1.0642,1.0643,1.0657,1.0643,1.0648,1.0663,1.0681,1.0655,1.0646,1.0643,1.0692,1.0693,1.0693,1.0694,0,0,1.0488,1.0518,1.0516,1.0524,1.0545,1.0548,1.0547,1.0558,1.056,1.0571,1.0571,1.0579,1.0593,1.06,1.0616,1.0612,1.059,1.0627,1.0628,1.0619,1.0574,1.0562,1.0558,1.0601,1.06,1.06,1.0573,0,1.0459,1.0461,1.0482,1.0477,1.048,1.0507,1.0507,1.0519,1.0533,1.0537,1.0552,1.0557,1.0575,1.058,1.0578,1.0593,1.0581,1.0595,1.06,1.06,1.0594,1.0554,1.0541,1.0514,1.057,1.0569,1.0569,0,1.0426,1.0437,1.0432,1.0453,1.0456,1.0455,1.0466,1.0471,1.0486,1.0496,1.0504,1.0522,1.0523,1.0541,1.0542,1.0551,1.0555,1.0563,1.0562,1.0562,1.0582,1.0551,1.0507,1.0502,1.0564,1.0564,1.0565,0,1.0386,1.0399,1.0398,1.0404,1.0429,1.0428,1.0438,1.0454,1.0459,1.0469,1.0473,1.0483,1.0488,1.0495,1.0515,1.0526,1.0514,1.0534,1.0521,1.052,1.0516,1.0516,1.047,1.052,1.052,1.052,1.052,0,1.0351,1.0347,1.038,1.0379,1.0375,1.04,1.0395,1.0408,1.0422,1.0424,1.0448,1.0449,1.0476,1.0481,1.0497,1.0495,1.0497,1.0505,1.0509,1.0502,1.0501,1.0503,1.0505,1.0519,1.052,1.052,1.052,0,1.0305,1.0326,1.0327,1.0351,1.0357,1.0353,1.0374,1.0374,1.0389,1.0391,1.0393,1.0417,1.0424,1.0445,1.0456,1.0467,1.046,1.0468,1.0454,1.0457,1.0443,1.0443,1.0396,1.039,1.0445,1.0445,1.0444,0,1.028,1.0278,1.0302,1.0306,1.0315,1.032,1.0326,1.035,1.0355,1.0372,1.037,1.0379,1.0386,1.0395,1.0413,1.0422,1.043,1.0413,1.0431,1.0424,1.0428,1.0428,1.0427,1.0408,1.0408,1.0407,1.0407,0,1.0235,1.0246,1.0253,1.0265,1.0271,1.0281,1.0292,1.0293,1.0321,1.0325,1.0332,1.0338,1.035,1.0357,1.0369,1.038,1.0397,1.0401,1.0398,1.039,1.0382,1.0385,1.0442,1.0401,1.0402,1.0402,1.0403,1.0403,1.0198,1.0197,1.0214,1.0222,1.0233,1.0243,1.0244,1.026,1.0267,1.0279,1.0293,1.0298,1.0314,1.0332,1.0341,1.0345,1.0354,1.0351,1.035,1.0348,1.0344,1.0383,1.0347,1.0347,1.0347,1.0348,1.0348,0,1.0153,1.0165,1.0172,1.0187,1.0193,1.0211,1.0224,1.0228,1.0232,1.0245,1.0253,1.0261,1.0268,1.0288,1.0297,1.0297,1.0305,1.0298,1.0298,1.03,1.0336,1.0336,1.0291,1.0291,1.0291,1.0291,1.0291,1.0291,1.013,1.0129,1.0142,1.0147,1.016,1.0165,1.0172,1.0181,1.0192,1.0199,1.0206,1.0219,1.0235,1.0246,1.0253,1.0259,1.0261,1.0251,1.0259,1.0292,1.0297,1.0302,1.0303,1.0252,1.0252,1.0222,1.0222,1.0222]},{"header":{"parameterUnit":"m.s-1","parameterCategory":1,"la1":30.2991,"la2":30.254,"lo1":-89.0895,"lo2":-89.0444,"dy":0.0017,"dx":0.0017,"nx":28,"ny":28,"refTime":"2024-03-19T03:00:00:Z","depth":0,"parameterNumber":3,"parameterNumberName":"V-component_of_WINDS"},"data":[0,0,0,0,0,0,0,0,0,0,0,0,0,0,0,0,0,0,0,0,0,0,0,0,0,0,0,0,0,0,0,0,0,0,0,0,0,0,0,0,0,0,0,0,0,0,0,0,0,0,0,0,0,0,0,0,0,0,1.0627,1.0628,0,1.0666,1.0666,1.0666,1.0708,1.0709,1.0709,1.071,1.0747,1.0748,1.0748,0,0,0,0,0,0,0,0,0,0,0,0,0,1.0587,1.0587,1.0627,1.0628,1.0628,1.0666,1.0666,1.0667,1.0708,1.0709,1.0709,1.071,1.0747,1.0748,1.0748,0,0,0,0,0,0,0,0,0,0,0,0,0,1.0613,1.0587,1.0627,1.0653,1.0656,1.0665,1.0666,1.0667,1.0708,1.0709,1.071,1.071,1.0747,1.0748,1.0748,1.0734,0,0,1.075,1.0751,0,0,0,0,0,0,0,0,1.0611,1.0614,1.0649,1.0651,1.0655,1.0683,1.0666,1.0689,1.0708,1.0688,1.071,1.0711,1.0725,1.0728,1.0733,1.0736,1.0738,1.075,1.0751,1.0751,1.0751,0,0,0,0,0,0,0,1.0609,1.0613,1.0642,1.0649,1.0653,1.0662,1.0667,1.067,1.0701,1.069,1.0693,1.0697,1.0727,1.0732,1.0734,1.0738,1.075,1.0751,1.0751,1.0752,1.073,1.0729,0,0,0,0,0,0,1.0604,1.0611,1.0641,1.0643,1.0635,1.0662,1.0667,1.0673,1.0701,1.0706,1.0696,1.0699,1.073,1.0733,1.0735,1.072,1.0751,1.0752,1.0752,1.0731,1.073,1.0729,0,0,0,0,0,0,1.0603,1.0606,1.064,1.0628,1.0633,1.0662,1.0668,1.0673,1.0679,1.0706,1.0711,1.0696,1.0731,1.0734,1.0734,1.0722,1.0752,1.0752,1.0732,1.0731,1.073,1.0689,0,0,0,0,0,0,1.0601,1.0605,1.0601,1.0628,1.0633,1.0638,1.0667,1.0673,1.068,1.0684,1.0707,1.0712,1.0732,1.0733,1.0735,1.0723,1.0753,1.0734,1.0732,1.073,1.0692,1.0686,1.0682,0,0,0,0,0,1.06,1.0588,1.0601,1.0604,1.0629,1.0637,1.0641,1.0665,1.0679,1.0674,1.0691,1.0711,1.0723,1.0732,1.0735,1.0723,1.0735,1.0732,1.073,1.0694,1.0687,1.0682,0,0,0,0,0,0,1.0559,1.0592,1.0607,1.0603,1.0617,1.0644,1.0639,1.0657,1.0667,1.067,1.0699,1.0704,1.07,1.0712,1.0722,1.071,1.0731,1.073,1.0703,1.0697,1.0692,1.0689,1.0754,0,0,0,0,0,1.055,1.0555,1.0583,1.0578,1.0584,1.061,1.0615,1.0632,1.0648,1.0654,1.0671,1.0685,1.0691,1.0695,1.0703,1.0694,1.0699,1.0687,1.0682,1.0678,1.0676,1.067,1.0665,1.0722,1.0722,1.0722,0,0,1.0531,1.0549,1.0551,1.057,1.0583,1.0586,1.0615,1.0618,1.062,1.0654,1.0654,1.0667,1.0684,1.0679,1.0678,1.0689,1.0661,1.0675,1.0672,1.0672,1.0667,1.0662,1.0657,1.0721,1.0721,1.0721,0,0,1.0497,1.0512,1.0509,1.0521,1.054,1.0558,1.0556,1.0581,1.0591,1.0592,1.0617,1.062,1.0631,1.0642,1.0648,1.0618,1.0636,1.0619,1.0594,1.0588,1.0583,1.058,1.0567,1.0563,1.0617,1.0617,1.0617,0,1.0471,1.0478,1.0504,1.0505,1.0512,1.0543,1.0539,1.0549,1.0569,1.0573,1.0585,1.0599,1.0613,1.061,1.0602,1.0607,1.0606,1.0616,1.0582,1.0579,1.0575,1.0564,1.0559,1.0615,1.0615,1.0615,1.0616,0,1.0443,1.0448,1.0442,1.0461,1.0468,1.0466,1.0491,1.0494,1.0511,1.0526,1.0526,1.0544,1.0555,1.0555,1.0572,1.0554,1.056,1.0577,1.0598,1.0567,1.0557,1.0553,1.0612,1.0612,1.0613,1.0614,0,0,1.0385,1.0419,1.0416,1.0424,1.0447,1.0451,1.045,1.0461,1.0462,1.0475,1.0474,1.0483,1.0498,1.0505,1.0523,1.0518,1.0491,1.0535,1.0536,1.0525,1.0471,1.0457,1.0452,1.0503,1.0502,1.0502,1.0469,0,1.0355,1.0356,1.0379,1.0373,1.0376,1.0405,1.0404,1.0417,1.0432,1.0436,1.0452,1.0457,1.0477,1.0482,1.0478,1.0495,1.048,1.0497,1.0501,1.0501,1.0495,1.0447,1.0433,1.0401,1.0465,1.0465,1.0464,0,1.032,1.0331,1.0325,1.0347,1.0349,1.0348,1.0359,1.0363,1.0378,1.0389,1.0397,1.0417,1.0416,1.0437,1.0435,1.0447,1.045,1.0458,1.0457,1.0457,1.048,1.0445,1.0392,1.0386,1.0458,1.0459,1.0459,0,1.0277,1.029,1.0287,1.0294,1.032,1.0318,1.0328,1.0344,1.0349,1.0359,1.0362,1.0371,1.0376,1.0382,1.0404,1.0417,1.0399,1.0422,1.0407,1.0406,1.0401,1.0401,1.0347,1.0405,1.0405,1.0405,1.0405,0,1.024,1.0235,1.0268,1.0267,1.0261,1.0288,1.0281,1.0295,1.0308,1.0309,1.0335,1.0334,1.0363,1.0366,1.0382,1.0378,1.038,1.0388,1.0392,1.0385,1.0384,1.0387,1.0389,1.0404,1.0404,1.0404,1.0405,0,1.019,1.0213,1.0212,1.0236,1.0242,1.0237,1.0257,1.0256,1.0272,1.0273,1.0274,1.0299,1.0303,1.0325,1.0335,1.0346,1.0335,1.0344,1.033,1.0333,1.0316,1.0316,1.026,1.0254,1.0317,1.0316,1.0316,0,1.0165,1.0162,1.0185,1.0188,1.0197,1.0201,1.0206,1.0231,1.0235,1.0251,1.0248,1.0255,1.0261,1.0267,1.0285,1.0292,1.0301,1.0281,1.0302,1.0294,1.0299,1.0298,1.0298,1.0276,1.0275,1.0274,1.0274,0,1.0117,1.0128,1.0134,1.0144,1.0149,1.0158,1.0168,1.0169,1.0197,1.0199,1.0204,1.0209,1.0219,1.0225,1.0235,1.0245,1.0263,1.0267,1.0264,1.0256,1.0247,1.025,1.0316,1.0268,1.0268,1.0269,1.0269,1.0269,1.0078,1.0076,1.0092,1.0098,1.0108,1.0117,1.0116,1.0132,1.0137,1.0147,1.0161,1.0164,1.0178,1.0193,1.0201,1.0203,1.0214,1.0209,1.0208,1.0206,1.0202,1.0247,1.0205,1.0205,1.0206,1.0206,1.0206,0,1.003,1.0041,1.0047,1.006,1.0064,1.0082,1.0094,1.0096,1.0098,1.011,1.0116,1.012,1.0126,1.0144,1.0151,1.0149,1.0157,1.0149,1.0149,1.0151,1.0193,1.0194,1.0142,1.0142,1.0142,1.0142,1.0142,1.0142,1.0005,1.0002,1.0015,1.0016,1.0028,1.0031,1.0036,1.0044,1.0053,1.0057,1.0062,1.0074,1.0088,1.0096,1.0101,1.0106,1.0107,1.0096,1.0104,1.0142,1.0148,1.0154,1.0156,1.0096,1.0096,1.0062,1.0062,1.0061]}]]